This is the latest recevied weather packets stored in our database for station/object W9WRP. If no packets are shown the sender has not sent any weather packets the latest 10 day(s).
| Time | Temp. | Humidity | Pressure | Rain* | Wind** | Luminosity | Snow |
|---|---|---|---|---|---|---|---|
| 1788137936 | 102° F | 29% | 758.2 mmHg | 0 in | - | 54 W/m² | - |
| 1788137631 | 102° F | 29% | 758.5 mmHg | 0 in | - | 53 W/m² | - |
| 1788137326 | 102° F | 28% | 758.4 mmHg | 0 in | - | 65 W/m² | - |
| 1788137022 | 102° F | 28% | 758.3 mmHg | 0 in | - | 60 W/m² | - |
| 1788136718 | 102° F | 29% | 758.5 mmHg | 0 in | - | 69 W/m² | - |
| 1788136414 | 103° F | 27% | 758.4 mmHg | 0 in | - | 94 W/m² | - |
| 1788136113 | 103° F | 27% | 758.4 mmHg | 0 in | - | 78 W/m² | - |
| 1788135812 | 104° F | 28% | 758.5 mmHg | 0 in | - | 127 W/m² | - |
| 1788135508 | 104° F | 27% | 758.3 mmHg | 0 in | - | 129 W/m² | - |
| 1788135203 | 104° F | 27% | 758.5 mmHg | 0 in | - | 94 W/m² | - |
| 1788134901 | 104° F | 27% | 758.5 mmHg | 0 in | - | 152 W/m² | - |
| 1788134601 | 104° F | 27% | 758.5 mmHg | 0 in | - | 176 W/m² | - |
| 1788134299 | 102° F | 28% | 758.5 mmHg | 0 in | - | 160 W/m² | - |
| 1788133994 | 102° F | 28% | 758.7 mmHg | 0 in | - | 50 W/m² | - |
| 1788133689 | 104° F | 26% | 758.7 mmHg | 0 in | - | 95 W/m² | - |
| 1788133385 | 104° F | 26% | 758.8 mmHg | 0 in | - | 90 W/m² | - |
| 1788133081 | 105° F | 26% | 758.6 mmHg | 0 in | - | 72 W/m² | - |
| 1788132776 | 104° F | 26% | 758.6 mmHg | 0 in | - | 218 W/m² | - |
| 1788132471 | 103° F | 26% | 758.5 mmHg | 0 in | - | 66 W/m² | - |
| 1788132167 | 102° F | 27% | 758.7 mmHg | 0 in | - | 77 W/m² | - |
| 1788131863 | 102° F | 27% | 758.7 mmHg | 0 in | - | 68 W/m² | - |
| 1788131562 | 103° F | 27% | 758.7 mmHg | 0 in | - | 159 W/m² | - |
| 1788131258 | 105° F | 25% | 758.7 mmHg | 0 in | - | 310 W/m² | - |
| 1788130953 | 105° F | 25% | 758.8 mmHg | 0 in | - | 239 W/m² | - |
| 1788130652 | 104° F | 26% | 759 mmHg | 0 in | - | 247 W/m² | - |
* Rain latest hour (hover to see other rain measurements)
** Current wind speed in m/s (hover to see current wind gust speed)